Weather History for Lafayette, LA

Change the Weather History Date:

Friday, August 5, 2011

  Actual Average Record
Temperature  
Mean Temperature 88 °F 84 °F  
Max Temperature 96 °F 93 °F 101 °F (1896)
Min Temperature 80 °F 75 °F 63 °F (1915)
Cooling Degree Days 23 19  
Month to date cooling degree days 112 95  
Year to date cooling degree days 2149 1779  
Since 1 June cooling degree days 1301 1165  
Growing Degree Days 38 (Base 50)    
Moisture  
Dew Point 76 °F    
Average Humidity 72    
Maximum Humidity 94    
Minimum Humidity 49    
Precipitation  
Precipitation 0.00 in 0.15 in 2.50 in (1917)
Month to date precipitation 0.01 0.77  
Year to date precipitation 21.57 36.77  
Sea Level Pressure  
Sea Level Pressure 29.94 in    
Wind  
Wind Speed 3 mph (West)    
Max Wind Speed 12 mph    
Max Gust Speed 15 mph    
Visibility 10 miles    
Events      
T = Trace of Precipitation, MM = Missing Value Source: NWS Daily Summary

Daily Weather History Graph

Daily Weather History Graph

Search for Another Location

Airport:

Trip Planner

Search our weather history database for the weather conditions in past years. The results will help you decide how hot, cold, wet, or windy it might be!

Date:

Astronomy

Aug. 05, 2011 Rise Set
Actual Time 6:28 AM CDT 7:58 PM CDT
Civil Twilight 6:03 AM CDT 8:24 PM CDT
Nautical Twilight 5:32 AM CDT 8:55 PM CDT
Astronomical Twilight 4:59 AM CDT 9:27 PM CDT
Moon 12:52 PM CDT (8/5) 11:51 PM CDT (8/5)
Length of Visible Light 14h 21m
Length of Day
13h 29m
Waxing Crescent, 41% of the Moon is Illuminated
Aug 5
Waxing Crescent
Aug 6
First Quarter
Aug 13
Full
Aug 21
Last Quarter
Aug 28
New

Hourly Weather History & Observations

Time (CDT) Temp. Heat Index Dew Point Humidity Pressure Visibility Wind Dir Wind Speed Gust Speed Precip Events Conditions
12:53 AM 82.4 °F 92.4 °F 78.8 °F 89% 29.95 in 10.0 mi Calm Calm - N/A   Clear
1:53 AM 81.0 °F 88.6 °F 78.1 °F 91% 29.93 in 10.0 mi Calm Calm - N/A   Clear
2:53 AM 81.0 °F 87.9 °F 77.0 °F 88% 29.93 in 10.0 mi Calm Calm - N/A   Clear
3:53 AM 80.1 °F 85.4 °F 75.9 °F 87% 29.92 in 10.0 mi WSW 5.8 mph - N/A   Clear
4:53 AM 81.0 °F 87.9 °F 77.0 °F 88% 29.92 in 10.0 mi WSW 3.5 mph - N/A   Clear
5:53 AM 81.0 °F 87.3 °F 75.9 °F 85% 29.91 in 10.0 mi West 5.8 mph - N/A   Clear
6:53 AM 81.0 °F 87.9 °F 77.0 °F 88% 29.93 in 10.0 mi West 5.8 mph - N/A   Clear
7:53 AM 84.0 °F 93.7 °F 77.0 °F 79% 29.96 in 10.0 mi West 5.8 mph - N/A   Clear
8:53 AM 86.0 °F 96.9 °F 77.0 °F 74% 29.96 in 10.0 mi West 9.2 mph - N/A   Clear
9:53 AM 89.1 °F 99.1 °F 75.0 °F 63% 29.96 in 10.0 mi West 9.2 mph - N/A   Clear
10:53 AM 91.4 °F 102.5 °F 75.2 °F 59% 29.97 in 10.0 mi NW 5.8 mph - N/A   Clear
11:53 AM 91.9 °F 101.3 °F 73.9 °F 55% 29.97 in 10.0 mi Calm Calm - N/A   Mostly Cloudy
12:53 PM 93.0 °F 101.9 °F 73.0 °F 52% 29.97 in 10.0 mi Calm Calm - N/A   Mostly Cloudy
1:53 PM 93.9 °F 105.4 °F 75.0 °F 54% 29.95 in 10.0 mi NNE 4.6 mph - N/A   Partly Cloudy
2:53 PM 93.0 °F 101.9 °F 73.0 °F 52% 29.94 in 10.0 mi ENE 3.5 mph - N/A   Mostly Cloudy
3:53 PM 95.0 °F 105.2 °F 73.9 °F 50% 29.92 in 10.0 mi ENE 4.6 mph - N/A   Clear
4:53 PM 95.0 °F 104.5 °F 73.0 °F 49% 29.91 in 10.0 mi ESE 3.5 mph - N/A   Partly Cloudy
5:53 PM 93.9 °F 104.0 °F 73.9 °F 52% 29.91 in 10.0 mi East 3.5 mph - N/A   Clear
6:53 PM 91.9 °F 103.9 °F 75.9 °F 59% 29.90 in 10.0 mi Calm Calm - N/A   Clear
7:53 PM 90.0 °F 101.3 °F 75.9 °F 63% 29.93 in 10.0 mi South 5.8 mph - N/A   Clear
8:53 PM 88.0 °F 100.2 °F 77.0 °F 70% 29.93 in 10.0 mi SSW 3.5 mph - N/A   Clear
9:53 PM 87.1 °F 98.8 °F 77.0 °F 72% 29.94 in 10.0 mi Calm Calm - N/A   Clear
10:53 PM 84.9 °F 96.6 °F 78.1 °F 80% 29.94 in 10.0 mi Calm Calm - N/A   Partly Cloudy
11:53 PM 82.9 °F 92.8 °F 78.1 °F 85% 29.95 in 10.0 mi Calm Calm - N/A   Clear